Theta_e
306 304 301 305 308 306 306 305 305 309 312 310 309 311 312 315 315 315 317 318 320 321 323 325 326 329 329 332 334 337 337 340 338 336 335 336 337 336 337 337 333 331 332 332
302 301 306 308 309 306 305 304 305 308 311 310 309 308 312 314 315 315 315 317 319 321 321 323 326 328 329 330 333 336 337 339 340 338 338 338 336 336 335 336 334 333 331 333
299 302 307 307 307 304 305 304 305 305 309 310 308 306 309 313 315 316 317 319 321 321 320 322 324 327 328 329 331 334 336 340 341 341 340 338 337 335 332 333 330 331 333 333
301 305 304 306 305 306 302 308 308 307 304 299 308 298 307 310 311 313 314 317 318 321 322 322 324 326 328 327 331 334 337 340 340 340 337 335 332 330 332 328 333 330 333 333
300 302 302 305 306 309 306 310 308 308 305 304 303 299 303 310 308 311 312 315 319 321 321 321 323 326 326 327 330 334 337 340 341 341 339 335 333 334 335 332 331 329 328 334
303 308 307 307 310 310 311 308 308 307 304 297 302 301 301 305 307 309 311 315 318 320 321 323 325 326 325 325 329 334 336 338 340 340 339 334 332 331 331 329 329 331 332 332
302 302 307 310 306 310 308 306 297 295 294 294 303 300 303 310 310 310 310 315 320 321 321 322 323 322 323 323 328 330 333 333 336 337 337 335 334 333 331 329 327 330 329 330
297 295 303 309 307 305 307 306 298 291 292 295 305 298 303 311 313 313 313 317 321 320 321 322 323 323 322 323 327 329 330 330 334 334 336 336 335 335 330 330 331 330 330 332
298 298 307 308 310 310 306 302 307 300 301 297 300 305 310 311 310 311 313 318 321 321 321 322 323 323 323 324 327 331 331 331 332 333 336 336 336 334 334 334 335 331 333 333
305 299 306 307 310 311 309 310 300 301 292 291 297 300 301 306 308 312 316 318 321 322 321 322 322 324 323 325 328 332 331 330 331 333 335 333 336 334 335 336 335 332 332 331
308 306 304 307 305 304 305 304 304 304 301 295 294 298 311 310 312 316 317 320 320 320 319 321 322 324 322 324 325 330 330 328 329 331 332 334 334 334 333 333 332 331 330 331
307 306 301 303 309 311 309 306 306 299 299 301 300 299 314 315 314 315 318 320 319 320 320 320 321 323 319 321 324 327 330 325 327 328 329 331 334 334 334 332 334 332 327 331
308 303 299 301 306 309 306 307 308 309 308 302 296 299 314 314 313 315 318 319 319 320 320 320 321 321 318 320 323 324 327 324 324 324 326 330 333 332 333 330 334 334 329 330
312 305 302 299 303 307 304 305 306 305 302 300 301 303 309 311 311 314 318 320 319 319 320 320 321 320 318 320 322 323 326 325 323 322 325 328 331 332 333 332 334 332 334 329
311 301 305 305 306 306 305 304 304 304 305 301 304 304 309 312 313 315 319 321 319 318 319 320 321 320 318 321 322 323 325 324 323 321 323 327 331 333 333 331 331 332 332 331
313 302 304 302 304 305 303 305 305 305 304 305 305 306 313 316 316 316 319 319 318 318 319 320 322 321 318 321 321 323 325 323 322 322 321 325 325 327 332 333 331 329 328 329
309 306 303 298 304 303 300 305 305 306 307 307 303 308 314 313 314 316 319 320 320 320 320 321 322 322 320 322 323 323 325 322 321 321 320 323 323 323 328 329 330 330 331 332
306 308 305 299 303 293 304 311 309 307 309 310 310 311 313 314 317 316 320 321 321 322 322 322 324 325 323 323 323 325 325 322 319 320 319 320 321 321 324 327 329 331 332 332
311 309 302 298 298 302 303 307 307 307 307 312 309 311 312 315 316 317 319 321 324 325 325 325 326 327 325 324 324 324 324 322 319 319 320 318 320 322 322 325 329 332 333 332
309 311 303 301 295 293 305 309 312 312 302 314 314 314 314 315 308 311 321 321 325 327 327 326 327 327 325 325 325 325 323 322 319 319 321 319 318 323 324 328 330 332 334 332
301 304 299 299 299 301 309 311 313 300 305 315 316 316 316 314 316 327 325 323 328 327 328 328 328 326 325 326 326 324 323 322 322 321 322 321 321 324 327 331 331 332 332 330
300 299 300 301 299 295 311 310 305 316 326 321 319 318 318 321 322 323 324 325 326 326 327 328 327 327 327 326 325 324 323 325 324 322 321 322 324 320 325 329 329 330 330 331
295 304 301 304 303 320 319 319 323 324 321 319 320 320 320 319 319 320 323 326 326 327 327 328 327 329 328 326 325 323 326 327 324 323 323 324 323 322 325 327 327 326 328 325
303 304 302 307 311 311 314 318 320 320 321 321 322 321 320 319 320 320 321 326 326 327 327 328 327 328 328 327 326 326 327 326 324 324 325 325 322 321 324 325 326 323 322 321
299 303 302 303 312 314 314 314 318 320 321 321 321 321 321 321 321 322 322 325 325 326 328 328 328 328 329 329 327 328 328 325 324 326 325 325 323 321 324 324 324 322 323 319
299 298 298 300 304 311 313 317 314 319 320 321 322 321 323 323 323 323 324 326 326 326 328 328 331 331 330 330 329 328 328 326 326 326 324 323 322 320 323 322 323 302 306 301
Wind_Speed
21 16 22 25 26 25 25 24 24 22 14 10 15 21 15 12 13 18 15 11 8 10 15 14 11 9 7 5 4 5 1 2 2 3 3 0 1 3 1 0 4 6 5 7
23 26 26 27 25 27 28 26 24 21 18 14 15 15 13 14 17 20 17 10 8 12 16 15 13 9 7 7 6 4 3 0 3 4 2 2 1 0 2 2 1 2 5 6
28 26 27 28 26 26 25 25 20 23 17 16 16 14 13 21 18 15 12 5 1 14 14 15 13 10 8 6 6 5 3 1 1 4 2 3 3 3 2 2 2 4 1 3
31 27 29 29 28 26 25 25 25 19 15 12 14 14 13 15 16 11 6 9 10 15 15 15 14 12 9 8 7 5 4 2 2 4 5 4 3 4 2 2 2 3 1 2
29 29 29 30 28 27 23 24 22 16 15 16 14 13 14 15 17 7 1 6 13 16 16 17 15 13 11 8 7 5 5 3 3 3 4 4 5 3 2 2 3 5 3 3
27 23 30 30 26 26 24 22 16 11 12 14 15 16 14 16 2 4 2 6 13 14 15 15 14 13 10 8 8 6 5 3 1 4 3 5 5 6 3 3 2 3 3 2
26 30 30 29 28 23 23 17 10 12 12 12 17 18 16 12 7 1 3 5 12 13 14 15 14 13 11 9 9 6 6 5 2 5 4 5 5 5 5 4 4 4 4 3
23 24 33 26 31 25 23 16 13 15 12 17 15 13 4 2 6 4 2 6 11 12 14 14 14 12 12 10 9 8 7 6 4 4 4 4 7 3 3 3 2 3 4 3
22 29 24 32 23 25 21 23 18 18 16 13 7 14 10 12 9 9 8 9 11 10 13 14 14 12 11 10 8 5 6 6 4 4 3 2 5 5 3 3 2 4 4 5
23 18 28 29 25 24 22 18 17 13 17 15 13 14 6 13 9 11 12 8 10 12 14 13 13 11 10 10 8 6 5 6 5 4 4 3 3 5 5 3 3 5 5 6
25 17 19 24 27 22 19 20 18 14 14 12 12 11 15 11 9 11 11 12 12 14 14 13 13 11 10 10 10 6 6 6 6 4 4 2 4 4 6 6 4 6 5 6
31 10 16 24 25 26 23 23 18 11 17 12 11 3 10 9 9 6 16 14 14 15 14 14 13 12 11 10 11 9 6 7 6 5 6 2 5 4 5 6 5 6 8 7
25 20 14 20 22 25 24 24 20 14 9 14 12 10 11 12 9 9 11 17 14 15 14 13 13 12 11 11 11 10 8 7 7 7 7 3 5 6 3 5 5 7 7 7
21 19 22 15 16 21 26 24 22 19 13 14 15 17 13 12 9 9 10 18 17 14 14 14 12 13 12 12 11 11 9 8 7 7 8 5 5 5 4 5 4 7 6 8
21 26 22 25 23 27 26 26 25 25 20 19 16 17 11 12 8 10 11 15 17 16 16 14 12 12 12 12 10 11 10 9 7 8 9 6 5 4 5 5 6 5 7 7
19 23 24 24 28 25 27 28 26 26 25 22 21 17 13 10 18 14 15 15 14 17 17 16 14 14 14 13 11 10 10 10 8 7 10 8 6 5 4 5 5 6 5 7
13 18 21 23 23 25 25 27 26 21 21 22 21 15 13 12 11 9 16 14 14 15 17 17 15 14 12 13 10 10 9 11 9 8 10 10 7 7 6 5 5 4 5 6
16 20 16 18 20 27 14 18 22 21 19 20 18 16 17 14 9 12 15 15 14 15 16 17 15 13 13 13 12 11 11 11 11 9 11 11 10 9 7 6 6 5 4 6
18 17 11 16 18 14 22 25 22 21 21 19 19 16 14 17 14 11 13 9 15 15 15 15 15 14 13 13 13 12 12 12 12 11 11 12 11 11 8 7 8 5 4 4
18 15 11 12 20 25 16 22 21 15 16 17 17 15 14 15 12 10 11 11 16 14 14 15 18 16 14 12 13 12 12 13 12 12 11 12 11 11 10 7 8 6 5 5
16 15 18 13 11 17 22 20 22 20 8 16 16 17 16 13 9 7 11 11 16 15 16 16 19 17 16 14 13 14 13 13 12 12 11 12 10 10 9 8 7 6 5 6
19 16 13 16 13 15 15 20 23 8 5 9 15 16 13 8 9 9 8 8 16 16 16 17 17 16 16 16 14 14 13 12 12 12 12 12 10 10 9 10 8 7 5 5
10 11 12 12 13 5 7 8 9 9 11 8 17 15 14 12 13 12 9 8 12 12 13 15 16 16 16 17 16 16 12 12 13 11 10 11 12 9 11 10 9 8 6 5
11 12 4 17 11 18 13 11 13 12 10 11 11 14 14 13 14 12 10 12 11 11 12 14 17 18 17 17 16 15 14 14 13 11 10 11 12 9 11 9 8 8 8 7
8 11 15 14 7 13 11 12 16 12 12 12 9 11 15 16 15 13 10 11 10 10 13 13 15 17 18 17 16 16 15 15 12 11 10 12 11 11 10 10 10 10 9 10
1 4 7 6 15 10 12 5 19 14 15 13 10 11 11 10 12 12 11 10 9 11 14 13 11 14 16 18 17 17 17 17 13 11 10 11 11 10 10 9 8 4 4 13
Wind_Direction
219 225 226 224 225 236 244 249 249 251 238 267 232 240 239 265 283 287 289 284 245 184 147 144 152 160 149 177 179 212 202 266 312 301 323 31 321 303 130 287 273 263 260 270
215 224 225 232 230 230 241 251 260 273 283 291 288 271 280 290 269 265 263 271 269 144 138 149 153 159 159 182 200 172 214 49 296 33 324 334 333 339 351 357 11 263 252 236
223 221 221 234 227 229 232 244 254 263 276 277 282 270 264 262 263 263 248 213 189 143 150 152 158 166 173 187 169 194 142 144 332 11 279 342 319 314 291 5 25 336 227 188
229 225 226 223 233 221 231 232 239 250 270 271 283 292 287 297 277 258 256 203 170 150 154 153 162 169 179 185 173 145 148 213 145 24 5 18 350 343 343 46 37 16 341 189
224 222 226 225 219 231 233 236 240 237 244 256 263 269 277 282 283 237 129 232 170 145 159 159 165 168 179 170 156 159 150 169 134 99 9 15 29 354 344 12 47 68 31 343
230 234 226 231 231 218 233 236 244 253 261 253 248 254 268 267 29 84 338 105 131 149 153 152 160 161 174 159 157 152 159 165 234 94 12 63 24 13 36 33 4 45 45 6
226 228 232 230 228 223 216 225 223 223 235 254 253 248 249 265 307 112 14 96 138 144 148 152 161 161 164 173 153 168 156 171 226 86 49 37 68 50 61 53 24 7 45 40
219 220 221 217 229 219 208 203 229 224 225 245 268 239 257 223 147 113 127 73 122 145 145 157 164 166 165 165 157 208 158 143 195 98 86 65 91 50 94 61 41 31 44 67
206 229 212 227 208 228 197 212 215 251 262 275 226 230 265 158 173 200 174 135 130 145 147 158 160 169 165 159 159 176 165 151 151 113 114 76 118 104 96 107 53 45 75 83
233 216 226 202 216 211 222 194 207 226 242 264 281 277 264 144 196 150 125 141 139 146 154 159 165 164 162 155 155 174 150 152 141 146 168 117 88 110 98 111 98 81 61 90
228 250 212 215 204 197 201 228 198 225 223 229 248 268 122 150 163 132 152 140 153 154 164 162 163 158 165 159 159 176 182 157 131 153 98 160 99 78 77 86 73 98 55 73
212 226 243 216 201 200 207 216 203 214 220 249 255 297 88 104 133 151 123 142 160 159 168 165 163 161 171 168 159 171 193 155 155 154 130 148 106 86 81 95 103 99 86 69
199 226 238 236 208 185 211 217 217 205 221 216 240 240 165 164 179 156 156 141 160 164 168 165 164 165 175 172 165 167 186 172 164 164 122 142 113 92 77 101 122 110 106 94
185 220 222 230 211 177 193 216 215 214 209 227 235 251 135 151 171 180 163 148 162 172 167 168 169 168 178 174 171 169 180 168 164 153 135 150 129 138 155 145 133 124 119 113
186 212 225 230 238 195 194 204 221 215 214 221 225 245 202 183 185 204 165 153 161 174 170 171 173 168 176 172 176 170 176 160 159 159 136 150 138 157 159 132 114 101 124 115
187 209 214 226 229 244 202 201 213 225 215 214 232 236 234 225 191 191 159 160 172 172 175 177 176 172 176 171 181 176 172 149 158 161 141 157 168 173 132 104 112 117 115 125
234 205 200 225 222 236 221 199 201 218 228 210 217 223 243 240 210 203 160 165 170 176 179 179 176 177 174 170 183 167 170 149 161 168 150 163 177 156 149 148 137 107 102 95
268 205 197 212 224 228 233 207 207 215 223 223 226 210 213 237 196 210 164 165 168 173 183 177 171 169 167 167 176 165 170 158 169 184 161 166 176 160 170 155 131 109 100 102
244 199 195 206 220 231 216 229 208 202 210 211 219 225 220 210 238 232 202 188 165 170 178 174 165 158 161 170 171 170 179 169 178 187 167 169 181 160 171 161 139 140 132 129
241 183 196 193 215 221 224 211 225 223 217 201 205 210 206 229 217 216 196 188 160 163 169 166 159 156 162 171 168 174 186 175 187 186 178 168 178 164 167 156 148 154 161 160
221 188 195 224 211 213 216 218 199 212 231 191 205 190 204 219 224 233 178 177 161 164 168 163 159 164 166 168 170 180 188 184 187 190 180 165 166 160 161 147 152 162 175 173
214 184 194 209 231 220 223 213 219 157 184 201 189 184 199 209 207 232 179 182 161 159 165 164 161 166 164 168 174 186 192 182 190 195 179 165 150 166 160 154 162 171 190 172
294 184 207 216 215 274 265 253 135 146 224 227 191 181 190 194 208 216 173 144 140 158 165 166 160 162 166 174 179 187 190 187 191 197 173 155 151 168 155 160 166 174 193 198
273 7 316 230 217 227 247 278 156 163 203 180 173 173 181 187 199 208 212 157 160 177 169 165 164 164 172 181 182 182 187 187 195 193 166 154 156 167 158 167 174 187 187 208
340 357 343 305 204 244 199 332 139 183 186 164 162 184 179 186 192 198 185 162 173 188 167 170 175 168 176 179 181 179 187 189 196 185 169 161 164 170 166 180 184 196 187 199
39 315 301 341 311 313 295 358 322 250 181 159 146 160 169 188 172 178 171 162 192 185 168 172 174 171 173 176 185 184 189 188 192 185 177 173 169 175 178 184 189 149 227 170